Location: Goettingen
(51.5300°N, 9.9433°E)
Time: 04:08:22
(UTC+01:00)

ISS - Pass Details

Date: 01 December 2021
Orbit: 417 x 423 km, 51.6° (Epoch: 29 November)

Event Time Altitude Azimuth Distance (km) Brightness Sun altitude
Rises 18:42:25 0° 282° (WNW) 2,381 1.3 -22.0°
Reaches altitude 10° 18:44:32 10° 279° (W) 1,514 0.1 -22.3°
Enters shadow 18:47:23 52° 242° (WSW) 535 -3.0 -22.8°
